Regional Weather Roundup
Issued by NWS New Orleans/Baton Rouge, LA

Home | Current Version | Previous Version | Text Only | Print | Product List | Glossary Off
Versions: 1 2 3 4 5 6 7 8 9 10 11 12 13 14 15 16 17 18 19 20 21 22 23 24 25 26 27 28 29 30 31 32 33 34 35 36 37 38 39 40 41 42 43 44 45 46 47 48 49 50

360
ASUS44 KLIX 041905
RWRLIX
NEW ORLEANS REGIONAL WEATHER ROUNDUP
NATIONAL WEATHER SERVICE NEW ORLEANS LA
100 PM CST WED MAR 04 2015

NOTE: "FAIR" INDICATES FEW OR NO CLOUDS BELOW 12,000 FEET WITH NO
      SIGNIFICANT WEATHER AND/OR OBSTRUCTIONS TO VISIBILITY.
      SKY/WX - SKY CONDITION AND SIGNIFICANT WEATHER.
      TMP - AIR TEMPERATURE.     DP    - DEWPOINT TEMPERATURE.
      RH  - RELATIVE HUMIDITY.   PRES  - PRESSURE.
      HI  - HEAT INDEX.          WCI   - WIND CHILL INDEX.

*  THESE STATIONS ARE NOT NWS OR FAA STATIONS AND ARE NOT UNDER
   NWS QUALITY CONTROL.

LAZ038-040-048-061>063-065>067-069-042000-
SOUTHEAST LOUISIANA

CITY           SKY/WX    TMP DP  RH WIND       PRES   REMARKS
N.O. AUDUBON   NOT AVBL
N.O. INTL ARPT PTSUNNY   81  66  60 S18       29.94F
N.O. LAKEFRONT MOSUNNY   80  65  59 SW14      29.95F
SLIDELL        CLOUDY    77  69  76 S12       29.95F
BATON ROUGE    MOSUNNY   83  65  54 S20       29.92F
BOOTHVILLE     CLOUDY    78  70  76 S14       29.98F
BELLE CHASSE   PTSUNNY   82  67  60 SW20      29.94F
BOGALUSA*        N/A     83  64  51 S16G23    29.96F
GALLIANO*      MOCLDY    82  69  64 S13       29.96F
NEW ROADS*     MOCLDY    82  64  53 S17G25    29.91F
GONZALES*        N/A     82  66  59 S18G25    29.93F
HAMMOND*       PTSUNNY   84  63  48 S12G17    29.95F
HOUMA*         MOSUNNY   81  70  69 S17G25    29.95F
PORT FOURCHON* PTCLDY    79  70  73 S8        29.99F

$$

MSZ070-080>082-042000-
SOUTHERN MISSISSIPPI

CITY           SKY/WX    TMP DP  RH WIND       PRES   REMARKS
MCCOMB         PTSUNNY   78  64  61 S14G24    29.93F
GULFPORT       LGT RAIN  69  67  93 S9        29.97F FOG
BILOXI         NOT AVBL
PASCAGOULA     CLOUDY    76  69  79 S12G28    29.98F
STENNIS ARPT*  PTSUNNY   75  66  73 S13       29.97F

$$

COASTAL OBSERVATIONS
LAKE AND NEARSHORE STATIONS

STATION/POSITION TIME  TEMP    WIND        PRES    WAVE
                       AIR SEA DIR/SP/G            HT/PER
                 (UTC) (F)     (DEG/KT/KT) (MB)    (FT/S)
PASCAGOULA       1900   73     150/  8/ 20 1015.1
WAVELAND YACHT   1900   66 60  170/  6/  7 1014.9
GRAND ISLE       1900   74 66  160/  7/  9 1015.5
SOUTHWEST PASS   1900   71 46  160/ 11/ 12 1015.3
NEW CANAL        1900   80     200/ 12/ 19 1014.7
SHELL BEACH      1900   75 61  180/ 12/ 15 1015.0

OFFSHORE STATIONS

STATION/POSITION TIME  TEMP    WIND        PRES    WAVE
                       AIR SEA DIR/SP/G            HT/PER
                 (UTC) (F)     (DEG/KT/KT) (MB)    (FT/S)
64 S DAUPHIN ISL 1850   73 72  160/ 14/ 16 1015.8    4/ 7

$$




USA.gov is the U.S. government's official web portal to all federal, state and local government web resources and services.